Home   Weather   Backnang   Past weeks

Flag for Germany Past Weather in Backnang, Baden-Württemberg, Germany — Yesterday and Last 2 Weeks

Now
39 °F

Passing clouds.


Feels Like: 37 °F
Forecast: 22 / 40 °F
Wind: 3 mph from Southeast

Location: Stuttgart-Echterdingen

Current Time: Dec 5, 2016 at 1:41:58 pm

Latest Report: Dec 5, 2016 at 1:20 pm


Visibility: N/A

Pressure: 30.30 "Hg

Humidity: 70%

Dew Point: 30 °F

Location of BacknangLocation

Past Weather in Backnang — Graph

°F

Backnang Temperature Yesterday

Maximum temperature yesterday: 34 °F (at 2:20 pm)
Minimum temperature yesterday: 19 °F (at 4:20 am)
Average temperature yesterday: 27 °F

High & Low Weather Summary for the Past Weeks

 TemperatureHumidityPressure
High61 °F (Nov 20, 1:50 pm)100% (Nov 23, 12:20 am)30.51 "Hg (Nov 23, 12:20 am)
Low19 °F (Nov 30, 5:20 am)31% (Dec 1, 1:50 pm)29.59 "Hg (Nov 21, 12:20 pm)
Average38 °F83%30.12 "Hg
* Reported Nov 20 12:20 pm — Dec 5 12:20 pm, Backnang, Weather by CustomWeather, © 2016

Note: Actual official high and low records may vary slightly from our data, if they occured in-between our weather recording intervals... More about our weather records

Advertising

Backnang Weather History for the Previous 24 Hours

Scroll right to see more
 ConditionsComfort  
Time TempWeatherWind HumidityBarometerVisibility
12:20 pm
Mon, Dec 5
37 °FPassing clouds.5 mph75%30.30 "HgN/A
11:50 am36 °FPassing clouds.3 mph81%30.30 "HgN/A
11:20 am34 °FSunny.3 mph81%30.30 "Hg10 mi
10:50 am32 °FSunny.3 mph87%30.30 "Hg10 mi
10:20 am30 °FClear.3 mph86%30.30 "Hg6 mi
9:50 am28 °FClear.1 mph93%30.30 "Hg6 mi
9:20 am27 °FClear.1 mph100%30.30 "Hg6 mi
8:50 am25 °FClear.1 mph100%30.30 "Hg6 mi
8:20 am23 °FFog.1 mph93%30.30 "Hg6 mi
7:50 am23 °FLight fog.1 mph93%30.30 "Hg5 mi
7:20 am23 °FLight fog.1 mph100%30.30 "Hg6 mi
6:50 am23 °FLight fog.1 mph93%30.30 "Hg6 mi
6:20 am23 °FLight fog.1 mph93%30.30 "Hg6 mi
5:50 am23 °FLight fog.1 mph100%30.30 "Hg6 mi
5:20 am23 °FLight fog.2 mph93%30.27 "Hg6 mi
4:50 am23 °FClear.1 mph93%30.30 "Hg6 mi
4:20 am23 °FPassing clouds.No wind100%30.30 "HgN/A
3:50 am23 °FPassing clouds.No wind100%30.30 "HgN/A
3:20 am25 °FPassing clouds.No wind93%30.30 "HgN/A
2:50 am25 °FPassing clouds.1 mph93%30.30 "HgN/A
2:20 am27 °FPassing clouds.2 mph93%30.30 "HgN/A
1:50 am27 °FPassing clouds.2 mph93%30.30 "HgN/A
1:20 am28 °FPassing clouds.2 mph86%30.30 "HgN/A
12:50 am28 °FPassing clouds.1 mph93%30.30 "HgN/A
12:20 am28 °FPassing clouds.1 mph93%30.30 "HgN/A
11:50 pm
Sun, Dec 4
30 °FPassing clouds.2 mph86%30.30 "HgN/A
11:20 pm30 °FLow clouds.5 mph93%30.30 "HgN/A
10:50 pm30 °FOvercast.2 mph93%30.30 "HgN/A
10:20 pm30 °FOvercast.3 mph93%30.30 "HgN/A
9:50 pm30 °FOvercast.3 mph93%30.30 "HgN/A
9:20 pm30 °FOvercast.5 mph93%30.30 "HgN/A
8:50 pm30 °FOvercast.6 mph86%30.30 "HgN/A
8:20 pm30 °FOvercast.7 mph86%30.30 "HgN/A
7:50 pm30 °FOvercast.6 mph93%30.30 "HgN/A
7:20 pm32 °FOvercast.6 mph87%30.30 "HgN/A
6:50 pm32 °FOvercast.5 mph87%30.30 "HgN/A
6:20 pm32 °FPassing clouds.3 mph87%30.30 "HgN/A
5:50 pm32 °FPassing clouds.6 mph87%30.30 "HgN/A
5:20 pm32 °FPassing clouds.5 mph87%30.30 "HgN/A
4:50 pm32 °FPassing clouds.6 mph87%30.27 "HgN/A
4:20 pm32 °FPartly sunny.6 mph87%30.27 "HgN/A
3:50 pm32 °FPartly sunny.7 mph87%30.27 "HgN/A
3:20 pm32 °FPartly sunny.8 mph87%30.27 "HgN/A
2:50 pm32 °FPartly sunny.7 mph87%30.27 "HgN/A
2:20 pm34 °FPartly sunny.7 mph81%30.27 "HgN/A
1:50 pm32 °FPartly sunny.3 mph87%30.27 "HgN/A
1:20 pm32 °FPartly sunny.3 mph87%30.27 "HgN/A
Weather by CustomWeather, © 2016

See weather overviewHow to use our weather pages